User: anonymous   Login
Location: Fishcreek Rd Observing Site
(41.1865°N, 81.4271°W)
Time: 19:53:44
(UTC-04:00)
Language:

Iridium 75 - Orbit

View from above orbital plane
View from above orbital plane
View from above satellite
View from above satellite

Ground track
Ground track

The orbit data is extracted from the following two-line orbital elements,

1 25346U 98032E   15090.46929689  .00000713  00000-0  24746-3 0  9997
2 25346 086.4014 202.1140 0002218 099.3290 029.4564 14.34217978883757
Epoch (UTC): 31 March 2015 11:15:47
Eccentricity: 0.0002218
inclination: 86.4014°
perigee height: 776 km
apogee height: 779 km
right ascension of ascending node: 202.1140°
argument of perigee: 99.3290°
revolutions per day: 14.34217978
mean anomaly at epoch: 29.4564°
orbit number at epoch: 88375

The dashed part of the orbit path shows where the satellite is in the earth's shadow,  

DLR